Year,Month,Day,Hour,Minute,Value (Times are PST for temperature in C)
2018,04,27,00,00,12.80
2018,04,27,00,01,12.80
2018,04,27,00,02,12.80
2018,04,27,00,03,12.80
2018,04,27,00,04,12.80
2018,04,27,00,05,12.80
2018,04,27,00,06,12.70
2018,04,27,00,07,12.70
2018,04,27,00,08,12.70
2018,04,27,00,09,12.70
2018,04,27,00,10,12.60
2018,04,27,00,11,12.60
2018,04,27,00,12,12.60
2018,04,27,00,13,12.50
2018,04,27,00,14,12.50
2018,04,27,00,15,12.50
2018,04,27,00,16,12.40
2018,04,27,00,17,12.40
2018,04,27,00,18,12.40
2018,04,27,00,19,12.30
2018,04,27,00,20,12.30
2018,04,27,00,21,12.30
2018,04,27,00,22,12.30
2018,04,27,00,23,12.20
2018,04,27,00,24,12.20
2018,04,27,00,25,12.20
2018,04,27,00,26,12.20
2018,04,27,00,27,12.20
2018,04,27,00,28,12.10
2018,04,27,00,29,12.10
2018,04,27,00,30,12.10
2018,04,27,00,31,12.10
2018,04,27,00,32,12.00
2018,04,27,00,33,12.00
2018,04,27,00,34,11.90
2018,04,27,00,35,11.90
2018,04,27,00,36,11.90
2018,04,27,00,37,11.80
2018,04,27,00,38,11.80
2018,04,27,00,39,11.80
2018,04,27,00,40,11.80
2018,04,27,00,41,11.70
2018,04,27,00,42,11.70
2018,04,27,00,43,11.70
2018,04,27,00,44,11.70
2018,04,27,00,45,11.60
2018,04,27,00,46,11.60
2018,04,27,00,47,11.60
2018,04,27,00,48,11.60
2018,04,27,00,49,11.50
2018,04,27,00,50,11.50
2018,04,27,00,51,11.50
2018,04,27,00,52,11.40
2018,04,27,00,53,11.40
2018,04,27,00,54,11.40
2018,04,27,00,55,11.40
2018,04,27,00,56,11.40
2018,04,27,00,57,11.30
2018,04,27,00,58,11.30
2018,04,27,00,59,11.30
2018,04,27,01,00,11.30
2018,04,27,01,01,11.30
2018,04,27,01,02,11.30
2018,04,27,01,03,11.30
2018,04,27,01,04,11.30
2018,04,27,01,05,11.30
2018,04,27,01,06,11.30
2018,04,27,01,07,11.20
2018,04,27,01,08,11.20
2018,04,27,01,09,11.20
2018,04,27,01,10,11.20
2018,04,27,01,11,11.20
2018,04,27,01,12,11.20
2018,04,27,01,13,11.20
2018,04,27,01,14,11.20
2018,04,27,01,15,11.20
2018,04,27,01,16,11.20
2018,04,27,01,17,11.20
2018,04,27,01,18,11.20
2018,04,27,01,19,11.20
2018,04,27,01,20,11.10
2018,04,27,01,21,11.10
2018,04,27,01,22,11.10
2018,04,27,01,23,11.10
2018,04,27,01,24,11.10
2018,04,27,01,25,11.10
2018,04,27,01,26,11.10
2018,04,27,01,27,11.10
2018,04,27,01,28,11.10
2018,04,27,01,29,11.10
2018,04,27,01,30,11.10
2018,04,27,01,31,11.10
2018,04,27,01,32,11.10
2018,04,27,01,33,11.10
2018,04,27,01,34,11.10
2018,04,27,01,35,11.10
2018,04,27,01,36,11.00
2018,04,27,01,37,11.00
2018,04,27,01,38,11.00
2018,04,27,01,39,11.00
2018,04,27,01,40,11.00
2018,04,27,01,41,10.90
2018,04,27,01,42,10.90
2018,04,27,01,43,10.90
2018,04,27,01,44,10.90
2018,04,27,01,45,10.90
2018,04,27,01,46,10.90
2018,04,27,01,47,10.90
2018,04,27,01,48,10.80
2018,04,27,01,49,10.80
2018,04,27,01,50,10.80
2018,04,27,01,51,10.80
2018,04,27,01,52,10.80
2018,04,27,01,53,10.90
2018,04,27,01,54,10.90
2018,04,27,01,55,10.90
2018,04,27,01,56,10.90
2018,04,27,01,57,10.90
2018,04,27,01,58,10.90
2018,04,27,01,59,10.90
2018,04,27,02,00,10.90
2018,04,27,02,01,10.80
2018,04,27,02,02,10.80
2018,04,27,02,03,10.80
2018,04,27,02,04,10.80
2018,04,27,02,05,10.80
2018,04,27,02,06,10.80
2018,04,27,02,07,10.80
2018,04,27,02,08,10.80
2018,04,27,02,09,10.70
2018,04,27,02,10,10.70
2018,04,27,02,11,10.70
2018,04,27,02,12,10.70
2018,04,27,02,13,10.70
2018,04,27,02,14,10.70
2018,04,27,02,15,10.70
2018,04,27,02,16,10.70
2018,04,27,02,17,10.70
2018,04,27,02,18,10.70
2018,04,27,02,19,10.70
2018,04,27,02,20,10.70
2018,04,27,02,21,10.70
2018,04,27,02,22,10.70
2018,04,27,02,23,10.70
2018,04,27,02,24,10.60
2018,04,27,02,25,10.60
2018,04,27,02,26,10.60
2018,04,27,02,27,10.60
2018,04,27,02,28,10.60
2018,04,27,02,29,10.60
2018,04,27,02,30,10.60
2018,04,27,02,31,10.60
2018,04,27,02,32,10.60
2018,04,27,02,33,10.60
2018,04,27,02,34,10.60
2018,04,27,02,35,10.60
2018,04,27,02,36,10.60
2018,04,27,02,37,10.60
2018,04,27,02,38,10.60
2018,04,27,02,39,10.50
2018,04,27,02,40,10.50
2018,04,27,02,41,10.50
2018,04,27,02,42,10.50
2018,04,27,02,43,10.50
2018,04,27,02,44,10.50
2018,04,27,02,45,10.50
2018,04,27,02,46,10.40
2018,04,27,02,47,10.40
2018,04,27,02,48,10.40
2018,04,27,02,49,10.40
2018,04,27,02,50,10.40
2018,04,27,02,51,10.40
2018,04,27,02,52,10.30
2018,04,27,02,53,10.30
2018,04,27,02,54,10.30
2018,04,27,02,55,10.30
2018,04,27,02,56,10.30
2018,04,27,02,57,10.30
2018,04,27,02,58,10.30
2018,04,27,02,59,10.30
2018,04,27,03,00,10.30
2018,04,27,03,01,10.30
2018,04,27,03,02,10.30
2018,04,27,03,03,10.30
2018,04,27,03,04,10.20
2018,04,27,03,05,10.20
2018,04,27,03,06,10.20
2018,04,27,03,07,10.20
2018,04,27,03,08,10.20
2018,04,27,03,09,10.20
2018,04,27,03,10,10.20
2018,04,27,03,11,10.20
2018,04,27,03,12,10.20
2018,04,27,03,13,10.20
2018,04,27,03,14,10.20
2018,04,27,03,15,10.20
2018,04,27,03,16,10.10
2018,04,27,03,17,10.10
2018,04,27,03,18,10.10
2018,04,27,03,19,10.10
2018,04,27,03,20,10.10
2018,04,27,03,21,10.10
2018,04,27,03,22,10.10
2018,04,27,03,23,10.10
2018,04,27,03,24,10.10
2018,04,27,03,25,10.10
2018,04,27,03,26,10.10
2018,04,27,03,27,10.10
2018,04,27,03,28,10.10
2018,04,27,03,29,10.10
2018,04,27,03,30,10.10
2018,04,27,03,31,10.10
2018,04,27,03,32,10.10
2018,04,27,03,33,10.10
2018,04,27,03,34,10.10
2018,04,27,03,35,10.20
2018,04,27,03,36,10.20
2018,04,27,03,37,10.20
2018,04,27,03,38,10.20
2018,04,27,03,39,10.20
2018,04,27,03,40,10.20
2018,04,27,03,41,10.20
2018,04,27,03,42,10.20
2018,04,27,03,43,10.20
2018,04,27,03,44,10.20
2018,04,27,03,45,10.20
2018,04,27,03,46,10.20
2018,04,27,03,47,10.20
2018,04,27,03,48,10.20
2018,04,27,03,49,10.20
2018,04,27,03,50,10.20
2018,04,27,03,51,10.30
2018,04,27,03,52,10.30
2018,04,27,03,53,10.30
2018,04,27,03,54,10.20
2018,04,27,03,55,10.20
2018,04,27,03,56,10.20
2018,04,27,03,57,10.20
2018,04,27,03,58,10.20
2018,04,27,03,59,10.20
2018,04,27,04,00,10.20
2018,04,27,04,01,10.20
2018,04,27,04,02,10.10
2018,04,27,04,03,10.10
2018,04,27,04,04,10.10
2018,04,27,04,05,10.10
2018,04,27,04,06,10.10
2018,04,27,04,07,10.10
2018,04,27,04,08,10.10
2018,04,27,04,09,10.10
2018,04,27,04,10,10.10
2018,04,27,04,11,10.10
2018,04,27,04,12,10.00
2018,04,27,04,13,10.00
2018,04,27,04,14,10.00
2018,04,27,04,15,10.00
2018,04,27,04,16,10.00
2018,04,27,04,17,9.90
2018,04,27,04,18,9.90
2018,04,27,04,19,9.90
2018,04,27,04,20,9.90
2018,04,27,04,21,9.90
2018,04,27,04,22,9.90
2018,04,27,04,23,9.90
2018,04,27,04,24,9.90
2018,04,27,04,25,9.80
2018,04,27,04,26,9.80
2018,04,27,04,27,9.80
2018,04,27,04,28,9.80
2018,04,27,04,29,9.80
2018,04,27,04,30,9.80
2018,04,27,04,31,9.80
2018,04,27,04,32,9.80
2018,04,27,04,33,9.80
2018,04,27,04,34,9.80
2018,04,27,04,35,9.80
2018,04,27,04,36,9.80
2018,04,27,04,37,9.80
2018,04,27,04,38,9.70
2018,04,27,04,39,9.70
2018,04,27,04,40,9.70
2018,04,27,04,41,9.70
2018,04,27,04,42,9.70
2018,04,27,04,43,9.70
2018,04,27,04,44,9.60
2018,04,27,04,45,9.60
2018,04,27,04,46,9.60
2018,04,27,04,47,9.60
2018,04,27,04,48,9.60
2018,04,27,04,49,9.60
2018,04,27,04,50,9.60
2018,04,27,04,51,9.60
2018,04,27,04,52,9.60
2018,04,27,04,53,9.60
2018,04,27,04,54,9.60
2018,04,27,04,55,9.60
2018,04,27,04,56,9.60
2018,04,27,04,57,9.60
2018,04,27,04,58,9.60
2018,04,27,04,59,9.60
2018,04,27,05,00,9.60
2018,04,27,05,01,9.60
2018,04,27,05,02,9.60
2018,04,27,05,03,9.60
2018,04,27,05,04,9.60
2018,04,27,05,05,9.60
2018,04,27,05,06,9.60
2018,04,27,05,07,9.60
2018,04,27,05,08,9.60
2018,04,27,05,09,9.60
2018,04,27,05,10,9.60
2018,04,27,05,11,9.60
2018,04,27,05,12,9.60
2018,04,27,05,13,9.60
2018,04,27,05,14,9.60
2018,04,27,05,15,9.60
2018,04,27,05,16,9.60
2018,04,27,05,17,9.60
2018,04,27,05,18,9.60
2018,04,27,05,19,9.60
2018,04,27,05,20,9.60
2018,04,27,05,21,9.60
2018,04,27,05,22,9.60
2018,04,27,05,23,9.60
2018,04,27,05,24,9.50
2018,04,27,05,25,9.50
2018,04,27,05,26,9.50
2018,04,27,05,27,9.50
2018,04,27,05,28,9.50
2018,04,27,05,29,9.50
2018,04,27,05,30,9.40
2018,04,27,05,31,9.40
2018,04,27,05,32,9.40
2018,04,27,05,33,9.40
2018,04,27,05,34,9.40
2018,04,27,05,35,9.40
2018,04,27,05,36,9.30
2018,04,27,05,37,9.30
2018,04,27,05,38,9.30
2018,04,27,05,39,9.30
2018,04,27,05,40,9.30
2018,04,27,05,41,9.30
2018,04,27,05,42,9.30
2018,04,27,05,43,9.30
2018,04,27,05,44,9.30
2018,04,27,05,45,9.30
2018,04,27,05,46,9.30
2018,04,27,05,47,9.30
2018,04,27,05,48,9.20
2018,04,27,05,49,9.20
2018,04,27,05,50,9.20
2018,04,27,05,51,9.20
2018,04,27,05,52,9.20
2018,04,27,05,53,9.20
2018,04,27,05,54,9.20
2018,04,27,05,55,9.20
2018,04,27,05,56,9.20
2018,04,27,05,57,9.20
2018,04,27,05,58,9.20
2018,04,27,05,59,9.20
2018,04,27,06,00,9.20
2018,04,27,06,01,9.20
2018,04,27,06,02,9.20
2018,04,27,06,03,9.20
2018,04,27,06,04,9.20
2018,04,27,06,05,9.20
2018,04,27,06,06,9.20
2018,04,27,06,07,9.20
2018,04,27,06,08,9.20
2018,04,27,06,09,9.20
2018,04,27,06,10,9.20
2018,04,27,06,11,9.20
2018,04,27,06,12,9.10
2018,04,27,06,13,9.10
2018,04,27,06,14,9.10
2018,04,27,06,15,9.10
2018,04,27,06,16,9.10
2018,04,27,06,17,9.10
2018,04,27,06,18,9.10
2018,04,27,06,19,9.10
2018,04,27,06,20,9.10
2018,04,27,06,21,9.10
2018,04,27,06,22,9.10
2018,04,27,06,23,9.10
2018,04,27,06,24,9.00
2018,04,27,06,25,9.00
2018,04,27,06,26,9.00
2018,04,27,06,27,9.00
2018,04,27,06,28,9.00
2018,04,27,06,29,9.00
2018,04,27,06,30,8.90
2018,04,27,06,31,8.90
2018,04,27,06,32,8.90
2018,04,27,06,33,8.90
2018,04,27,06,34,8.90
2018,04,27,06,35,8.90
2018,04,27,06,36,8.80
2018,04,27,06,37,8.80
2018,04,27,06,38,8.80
2018,04,27,06,39,8.80
2018,04,27,06,40,8.80
2018,04,27,06,41,8.80
2018,04,27,06,42,8.80
2018,04,27,06,43,8.80
2018,04,27,06,44,8.80
2018,04,27,06,45,8.90
2018,04,27,06,46,8.90
2018,04,27,06,47,8.90
2018,04,27,06,48,8.90
2018,04,27,06,49,8.90
2018,04,27,06,50,8.90
2018,04,27,06,51,8.90
2018,04,27,06,52,8.90
2018,04,27,06,53,8.90
2018,04,27,06,54,8.90
2018,04,27,06,55,8.90
2018,04,27,06,56,8.90
2018,04,27,06,57,8.90
2018,04,27,06,58,8.90
2018,04,27,06,59,8.90
2018,04,27,07,00,8.90
2018,04,27,07,01,8.90
2018,04,27,07,02,8.90
2018,04,27,07,03,9.00
2018,04,27,07,04,9.00
2018,04,27,07,05,9.00
2018,04,27,07,06,9.00
2018,04,27,07,07,9.10
2018,04,27,07,08,9.10
2018,04,27,07,09,9.10
2018,04,27,07,10,9.10
2018,04,27,07,11,9.20
2018,04,27,07,12,9.20
2018,04,27,07,13,9.20
2018,04,27,07,14,9.20
2018,04,27,07,15,9.20
2018,04,27,07,16,9.30
2018,04,27,07,17,9.30
2018,04,27,07,18,9.30
2018,04,27,07,19,9.30
2018,04,27,07,20,9.40
2018,04,27,07,21,9.40
2018,04,27,07,22,9.40
2018,04,27,07,23,9.40
2018,04,27,07,24,9.50
2018,04,27,07,25,9.50
2018,04,27,07,26,9.50
2018,04,27,07,27,9.60
2018,04,27,07,28,9.60
2018,04,27,07,29,9.60
2018,04,27,07,30,9.60
2018,04,27,07,31,9.60
2018,04,27,07,32,9.60
2018,04,27,07,33,9.60
2018,04,27,07,34,9.60
2018,04,27,07,35,9.70
2018,04,27,07,36,9.70
2018,04,27,07,37,9.70
2018,04,27,07,38,9.70
2018,04,27,07,39,9.80
2018,04,27,07,40,9.80
2018,04,27,07,41,9.80
2018,04,27,07,42,9.80
2018,04,27,07,43,9.80
2018,04,27,07,44,9.90
2018,04,27,07,45,9.90
2018,04,27,07,46,9.90
2018,04,27,07,47,9.90
2018,04,27,07,48,9.90
2018,04,27,07,49,10.00
2018,04,27,07,50,10.00
2018,04,27,07,51,10.00
2018,04,27,07,52,10.10
2018,04,27,07,53,10.10
2018,04,27,07,54,10.20
2018,04,27,07,55,10.30
2018,04,27,07,56,10.40
2018,04,27,07,57,10.50
2018,04,27,07,58,10.60
2018,04,27,07,59,10.70
2018,04,27,08,00,10.80
2018,04,27,08,01,10.90
2018,04,27,08,02,11.00
2018,04,27,08,03,11.10
2018,04,27,08,04,11.20
2018,04,27,08,05,11.30
2018,04,27,08,06,11.40
2018,04,27,08,07,11.50
2018,04,27,08,08,11.60
2018,04,27,08,09,11.70
2018,04,27,08,10,11.80
2018,04,27,08,11,11.90
2018,04,27,08,12,12.00
2018,04,27,08,13,12.10
2018,04,27,08,14,12.20
2018,04,27,08,15,12.30
2018,04,27,08,16,12.40
2018,04,27,08,17,12.50
2018,04,27,08,18,12.60
2018,04,27,08,19,12.80
2018,04,27,08,20,12.90
2018,04,27,08,21,13.00
2018,04,27,08,22,13.10
2018,04,27,08,23,13.20
2018,04,27,08,24,13.30
2018,04,27,08,25,13.30
2018,04,27,08,26,13.40
2018,04,27,08,27,13.60
2018,04,27,08,28,13.70
2018,04,27,08,29,13.80
2018,04,27,08,30,13.90
2018,04,27,08,31,14.00
2018,04,27,08,32,14.00
2018,04,27,08,33,14.10
2018,04,27,08,34,14.20
2018,04,27,08,35,14.30
2018,04,27,08,36,14.40
2018,04,27,08,37,14.50
2018,04,27,08,38,14.50
2018,04,27,08,39,14.60
2018,04,27,08,40,14.80
2018,04,27,08,41,15.00
2018,04,27,08,42,15.00
2018,04,27,08,43,15.00
2018,04,27,08,44,15.00
2018,04,27,08,45,15.00
2018,04,27,08,46,15.00
2018,04,27,08,47,15.00
2018,04,27,08,48,15.00
2018,04,27,08,49,15.20
2018,04,27,08,50,15.30
2018,04,27,08,51,15.30
2018,04,27,08,52,15.40
2018,04,27,08,53,15.40
2018,04,27,08,54,15.40
2018,04,27,08,55,15.40
2018,04,27,08,56,15.40
2018,04,27,08,57,15.40
2018,04,27,08,58,15.40
2018,04,27,08,59,15.40
2018,04,27,09,00,15.40
2018,04,27,09,01,15.40
2018,04,27,09,02,15.50
2018,04,27,09,03,15.60
2018,04,27,09,04,15.60
2018,04,27,09,05,15.70
2018,04,27,09,06,15.80
2018,04,27,09,07,15.80
2018,04,27,09,08,15.90
2018,04,27,09,09,16.00
2018,04,27,09,10,16.10
2018,04,27,09,11,16.10
2018,04,27,09,12,16.20
2018,04,27,09,13,16.20
2018,04,27,09,14,16.30
2018,04,27,09,15,16.30
2018,04,27,09,16,16.40
2018,04,27,09,17,16.40
2018,04,27,09,18,16.50
2018,04,27,09,19,16.60
2018,04,27,09,20,16.70
2018,04,27,09,21,16.80
2018,04,27,09,22,16.90
2018,04,27,09,23,17.00
2018,04,27,09,24,17.10
2018,04,27,09,25,17.10
2018,04,27,09,26,17.20
2018,04,27,09,27,17.30
2018,04,27,09,28,17.40
2018,04,27,09,29,17.40
2018,04,27,09,30,17.50
2018,04,27,09,31,17.60
2018,04,27,09,32,17.60
2018,04,27,09,33,17.60
2018,04,27,09,34,17.60
2018,04,27,09,35,17.60
2018,04,27,09,36,17.60
2018,04,27,09,37,17.70
2018,04,27,09,38,17.70
2018,04,27,09,39,17.70
2018,04,27,09,40,17.70
2018,04,27,09,41,17.70
2018,04,27,09,42,17.70
2018,04,27,09,43,17.70
2018,04,27,09,44,17.80
2018,04,27,09,45,17.80
2018,04,27,09,46,17.80
2018,04,27,09,47,17.80
2018,04,27,09,48,17.90
2018,04,27,09,49,17.90
2018,04,27,09,50,18.00
2018,04,27,09,51,18.00
2018,04,27,09,52,18.10
2018,04,27,09,53,18.10
2018,04,27,09,54,18.10
2018,04,27,09,55,18.20
2018,04,27,09,56,18.20
2018,04,27,09,57,18.20
2018,04,27,09,58,18.20
2018,04,27,09,59,18.20
2018,04,27,10,00,18.30
2018,04,27,10,01,18.30
2018,04,27,10,02,18.40
2018,04,27,10,03,18.40
2018,04,27,10,04,18.40
2018,04,27,10,05,18.40
2018,04,27,10,06,18.40
2018,04,27,10,07,18.40
2018,04,27,10,08,18.50
2018,04,27,10,09,18.50
2018,04,27,10,10,18.50
2018,04,27,10,11,18.50
2018,04,27,10,12,18.60
2018,04,27,10,13,18.60
2018,04,27,10,14,18.60
2018,04,27,10,15,18.70
2018,04,27,10,16,18.80
2018,04,27,10,17,18.80
2018,04,27,10,18,18.80
2018,04,27,10,19,18.90
2018,04,27,10,20,19.00
2018,04,27,10,21,19.10
2018,04,27,10,22,19.20
2018,04,27,10,23,19.30
2018,04,27,10,24,19.40
2018,04,27,10,25,19.50
2018,04,27,10,26,19.50
2018,04,27,10,27,19.60
2018,04,27,10,28,19.60
2018,04,27,10,29,19.70
2018,04,27,10,30,19.80
2018,04,27,10,31,19.80
2018,04,27,10,32,19.80
2018,04,27,10,33,19.80
2018,04,27,10,34,19.80
2018,04,27,10,35,19.80
2018,04,27,10,36,19.80
2018,04,27,10,37,19.80
2018,04,27,10,38,19.80
2018,04,27,10,39,19.70
2018,04,27,10,40,19.70
2018,04,27,10,41,19.70
2018,04,27,10,42,19.80
2018,04,27,10,43,19.80
2018,04,27,10,44,19.80
2018,04,27,10,45,19.90
2018,04,27,10,46,19.90
2018,04,27,10,47,20.00
2018,04,27,10,48,20.00
2018,04,27,10,49,20.10
2018,04,27,10,50,20.10
2018,04,27,10,51,20.20
2018,04,27,10,52,20.30
2018,04,27,10,53,20.30
2018,04,27,10,54,20.30
2018,04,27,10,55,20.40
2018,04,27,10,56,20.40
2018,04,27,10,57,20.40
2018,04,27,10,58,20.40
2018,04,27,10,59,20.40
2018,04,27,11,00,20.30
2018,04,27,11,01,20.30
2018,04,27,11,02,20.30
2018,04,27,11,03,20.20
2018,04,27,11,04,20.20
2018,04,27,11,05,20.20
2018,04,27,11,06,20.20
2018,04,27,11,07,20.20
2018,04,27,11,08,20.20
2018,04,27,11,09,20.20
2018,04,27,11,10,20.20
2018,04,27,11,11,20.20
2018,04,27,11,12,20.20
2018,04,27,11,13,20.20
2018,04,27,11,14,20.20
2018,04,27,11,15,20.30
2018,04,27,11,16,20.30
2018,04,27,11,17,20.30
2018,04,27,11,18,20.30
2018,04,27,11,19,20.30
2018,04,27,11,20,20.40
2018,04,27,11,21,20.40
2018,04,27,11,22,20.40
2018,04,27,11,23,20.50
2018,04,27,11,24,20.50
2018,04,27,11,25,20.50
2018,04,27,11,26,20.50
2018,04,27,11,27,20.50
2018,04,27,11,28,20.60
2018,04,27,11,29,20.60
2018,04,27,11,30,20.60
2018,04,27,11,31,20.60
2018,04,27,11,32,20.60
2018,04,27,11,33,20.60
2018,04,27,11,34,20.50
2018,04,27,11,35,20.50
2018,04,27,11,36,20.30
2018,04,27,11,37,20.20
2018,04,27,11,38,20.20
2018,04,27,11,39,20.20
2018,04,27,11,40,20.10
2018,04,27,11,41,20.10
2018,04,27,11,42,20.10
2018,04,27,11,43,20.10
2018,04,27,11,44,20.10
2018,04,27,11,45,20.20
2018,04,27,11,46,20.20
2018,04,27,11,47,20.20
2018,04,27,11,48,20.10
2018,04,27,11,49,20.10
2018,04,27,11,50,20.00
2018,04,27,11,51,20.00
2018,04,27,11,52,20.00
2018,04,27,11,53,20.00
2018,04,27,11,54,20.00
2018,04,27,11,55,20.00
2018,04,27,11,56,19.90
2018,04,27,11,57,19.90
2018,04,27,11,58,19.90
2018,04,27,11,59,19.80
2018,04,27,12,00,19.80
2018,04,27,12,01,19.80
2018,04,27,12,02,19.80
2018,04,27,12,03,19.70
2018,04,27,12,04,19.70
2018,04,27,12,05,19.70
2018,04,27,12,06,19.70
2018,04,27,12,07,19.70
2018,04,27,12,08,19.70
2018,04,27,12,09,19.70
2018,04,27,12,10,19.70
2018,04,27,12,11,19.70
2018,04,27,12,12,19.70
2018,04,27,12,13,19.70
2018,04,27,12,14,19.70
2018,04,27,12,15,19.70
2018,04,27,12,16,19.70
2018,04,27,12,17,19.70
2018,04,27,12,18,19.70
2018,04,27,12,19,19.70
2018,04,27,12,20,19.70
2018,04,27,12,21,19.70
2018,04,27,12,22,19.70
2018,04,27,12,23,19.70
2018,04,27,12,24,19.80
2018,04,27,12,25,19.80
2018,04,27,12,26,19.80
2018,04,27,12,27,19.70
2018,04,27,12,28,19.70
2018,04,27,12,29,19.60
2018,04,27,12,30,19.60
2018,04,27,12,31,19.50
2018,04,27,12,32,19.50
2018,04,27,12,33,19.50
2018,04,27,12,34,19.40
2018,04,27,12,35,19.40
2018,04,27,12,36,19.40
2018,04,27,12,37,19.40
2018,04,27,12,38,19.40
2018,04,27,12,39,19.40
2018,04,27,12,40,19.40
2018,04,27,12,41,19.50
2018,04,27,12,42,19.50
2018,04,27,12,43,19.60
2018,04,27,12,44,19.60
2018,04,27,12,45,19.60
2018,04,27,12,46,19.60
2018,04,27,12,47,19.60
2018,04,27,12,48,19.60
2018,04,27,12,49,19.60
2018,04,27,12,50,19.60
2018,04,27,12,51,19.50
2018,04,27,12,52,19.40
2018,04,27,12,53,19.40
2018,04,27,12,54,19.40
2018,04,27,12,55,19.40
2018,04,27,12,56,19.40
2018,04,27,12,57,19.40
2018,04,27,12,58,19.40
2018,04,27,12,59,19.50
2018,04,27,13,00,19.40
2018,04,27,13,01,19.50
2018,04,27,13,02,19.50
2018,04,27,13,03,19.50
2018,04,27,13,04,19.50
2018,04,27,13,05,19.50
2018,04,27,13,06,19.50
2018,04,27,13,07,19.40
2018,04,27,13,08,19.40
2018,04,27,13,09,19.40
2018,04,27,13,10,19.40
2018,04,27,13,11,19.30
2018,04,27,13,12,19.30
2018,04,27,13,13,19.30
2018,04,27,13,14,19.20
2018,04,27,13,15,19.20
2018,04,27,13,16,19.30
2018,04,27,13,17,19.30
2018,04,27,13,18,19.40
2018,04,27,13,19,19.50
2018,04,27,13,20,19.50
2018,04,27,13,21,19.60
2018,04,27,13,22,19.60
2018,04,27,13,23,19.60
2018,04,27,13,24,19.60
2018,04,27,13,25,19.60
2018,04,27,13,26,19.60
2018,04,27,13,27,19.60
2018,04,27,13,28,19.60
2018,04,27,13,29,19.60
2018,04,27,13,30,19.60
2018,04,27,13,31,19.60
2018,04,27,13,32,19.60
2018,04,27,13,33,19.60
2018,04,27,13,34,19.50
2018,04,27,13,35,19.40
2018,04,27,13,36,19.30
2018,04,27,13,37,19.20
2018,04,27,13,38,19.20
2018,04,27,13,39,19.20
2018,04,27,13,40,19.20
2018,04,27,13,41,19.30
2018,04,27,13,42,19.30
2018,04,27,13,43,19.30
2018,04,27,13,44,19.30
2018,04,27,13,45,19.20
2018,04,27,13,46,19.20
2018,04,27,13,47,19.10
2018,04,27,13,48,19.10
2018,04,27,13,49,19.10
2018,04,27,13,50,19.10
2018,04,27,13,51,19.10
2018,04,27,13,52,19.10
2018,04,27,13,53,19.10
2018,04,27,13,54,19.10
2018,04,27,13,55,19.10
2018,04,27,13,56,19.10
2018,04,27,13,57,19.10
2018,04,27,13,58,19.10
2018,04,27,13,59,19.00
2018,04,27,14,00,19.00
2018,04,27,14,01,18.90
2018,04,27,14,02,18.90
2018,04,27,14,03,18.90
2018,04,27,14,04,18.90
2018,04,27,14,05,18.80
2018,04,27,14,06,18.80
2018,04,27,14,07,18.80
2018,04,27,14,08,18.80
2018,04,27,14,09,18.80
2018,04,27,14,10,18.80
2018,04,27,14,11,18.80
2018,04,27,14,12,18.80
2018,04,27,14,13,18.90
2018,04,27,14,14,18.90
2018,04,27,14,15,18.90
2018,04,27,14,16,18.90
2018,04,27,14,17,18.90
2018,04,27,14,18,18.90
2018,04,27,14,19,18.90
2018,04,27,14,20,18.90
2018,04,27,14,21,18.90
2018,04,27,14,22,19.00
2018,04,27,14,23,19.00
2018,04,27,14,24,19.00
2018,04,27,14,25,19.00
2018,04,27,14,26,19.00
2018,04,27,14,27,18.90
2018,04,27,14,28,18.90
2018,04,27,14,29,18.90
2018,04,27,14,30,18.90
2018,04,27,14,31,19.00
2018,04,27,14,32,19.00
2018,04,27,14,33,19.10
2018,04,27,14,34,19.10
2018,04,27,14,35,19.10
2018,04,27,14,36,19.00
2018,04,27,14,37,19.00
2018,04,27,14,38,19.10
2018,04,27,14,39,19.10
2018,04,27,14,40,19.20
2018,04,27,14,41,19.20
2018,04,27,14,42,19.30
2018,04,27,14,43,19.30
2018,04,27,14,44,19.40
2018,04,27,14,45,19.40
2018,04,27,14,46,19.30
2018,04,27,14,47,19.30
2018,04,27,14,48,19.20
2018,04,27,14,49,19.10
2018,04,27,14,50,19.10
2018,04,27,14,51,19.10
2018,04,27,14,52,19.00
2018,04,27,14,53,19.00
2018,04,27,14,54,19.00
2018,04,27,14,55,18.90
2018,04,27,14,56,18.90
2018,04,27,14,57,19.00
2018,04,27,14,58,19.00
2018,04,27,14,59,19.10
2018,04,27,15,00,19.00
2018,04,27,15,01,18.90
2018,04,27,15,02,18.90
2018,04,27,15,03,18.90
2018,04,27,15,04,18.90
2018,04,27,15,05,18.80
2018,04,27,15,06,18.80
2018,04,27,15,07,18.80
2018,04,27,15,08,18.90
2018,04,27,15,09,18.90
2018,04,27,15,10,18.90
2018,04,27,15,11,18.90
2018,04,27,15,12,19.00
2018,04,27,15,13,19.00
2018,04,27,15,14,19.10
2018,04,27,15,15,19.10
2018,04,27,15,16,19.10
2018,04,27,15,17,19.00
2018,04,27,15,18,19.00
2018,04,27,15,19,19.00
2018,04,27,15,20,19.00
2018,04,27,15,21,19.00
2018,04,27,15,22,19.10
2018,04,27,15,23,19.10
2018,04,27,15,24,19.10
2018,04,27,15,25,19.20
2018,04,27,15,26,19.30
2018,04,27,15,27,19.30
2018,04,27,15,28,19.40
2018,04,27,15,29,19.40
2018,04,27,15,30,19.40
2018,04,27,15,31,19.30
2018,04,27,15,32,19.30
2018,04,27,15,33,19.30
2018,04,27,15,34,19.20
2018,04,27,15,35,19.20
2018,04,27,15,36,19.20
2018,04,27,15,37,19.20
2018,04,27,15,38,19.20
2018,04,27,15,39,19.20
2018,04,27,15,40,19.20
2018,04,27,15,41,19.20
2018,04,27,15,42,19.20
2018,04,27,15,43,19.30
2018,04,27,15,44,19.40
2018,04,27,15,45,19.50
2018,04,27,15,46,19.60
2018,04,27,15,47,19.60
2018,04,27,15,48,19.60
2018,04,27,15,49,19.60
2018,04,27,15,50,19.60
2018,04,27,15,51,19.50
2018,04,27,15,52,19.40
2018,04,27,15,53,19.40
2018,04,27,15,54,19.30
2018,04,27,15,55,19.30
2018,04,27,15,56,19.30
2018,04,27,15,57,19.20
2018,04,27,15,58,19.20
2018,04,27,15,59,19.20
2018,04,27,16,00,19.10
2018,04,27,16,01,19.00
2018,04,27,16,02,18.90
2018,04,27,16,03,18.90
2018,04,27,16,04,18.80
2018,04,27,16,05,18.80
2018,04,27,16,06,18.70
2018,04,27,16,07,18.70
2018,04,27,16,08,18.60
2018,04,27,16,09,18.50
2018,04,27,16,10,18.40
2018,04,27,16,11,18.40
2018,04,27,16,12,18.20
2018,04,27,16,13,18.20
2018,04,27,16,14,18.20
2018,04,27,16,15,18.10
2018,04,27,16,16,18.00
2018,04,27,16,17,18.00
2018,04,27,16,18,17.90
2018,04,27,16,19,17.90
2018,04,27,16,20,17.80
2018,04,27,16,21,17.80
2018,04,27,16,22,17.70
2018,04,27,16,23,17.60
2018,04,27,16,24,17.50
2018,04,27,16,25,17.50
2018,04,27,16,26,17.50
2018,04,27,16,27,17.40
2018,04,27,16,28,17.30
2018,04,27,16,29,17.20
2018,04,27,16,30,17.10
2018,04,27,16,31,17.00
2018,04,27,16,32,16.90
2018,04,27,16,33,16.90
2018,04,27,16,34,16.80
2018,04,27,16,35,16.70
2018,04,27,16,36,16.70
2018,04,27,16,37,16.70
2018,04,27,16,38,16.70
2018,04,27,16,39,16.70
2018,04,27,16,40,16.80
2018,04,27,16,41,16.80
2018,04,27,16,42,16.70
2018,04,27,16,43,16.70
2018,04,27,16,44,16.60
2018,04,27,16,45,16.60
2018,04,27,16,46,16.50
2018,04,27,16,47,16.40
2018,04,27,16,48,16.40
2018,04,27,16,49,16.40
2018,04,27,16,50,16.40
2018,04,27,16,51,16.40
2018,04,27,16,52,16.40
2018,04,27,16,53,16.40
2018,04,27,16,54,16.30
2018,04,27,16,55,16.30
2018,04,27,16,56,16.30
2018,04,27,16,57,16.20
2018,04,27,16,58,16.20
2018,04,27,16,59,16.20
2018,04,27,17,00,16.10
2018,04,27,17,01,16.10
2018,04,27,17,02,16.10
2018,04,27,17,03,16.00
2018,04,27,17,04,16.00
2018,04,27,17,05,16.00
2018,04,27,17,06,15.90
2018,04,27,17,07,15.90
2018,04,27,17,08,15.90
2018,04,27,17,09,15.90
2018,04,27,17,10,15.90
2018,04,27,17,11,15.90
2018,04,27,17,12,15.80
2018,04,27,17,13,15.80
2018,04,27,17,14,15.70
2018,04,27,17,15,15.70
2018,04,27,17,16,15.60
2018,04,27,17,17,15.50
2018,04,27,17,18,15.40
2018,04,27,17,19,15.40
2018,04,27,17,20,15.40
2018,04,27,17,21,15.40
2018,04,27,17,22,15.40
2018,04,27,17,23,15.40
2018,04,27,17,24,15.40
2018,04,27,17,25,15.40
2018,04,27,17,26,15.40
2018,04,27,17,27,15.30
2018,04,27,17,28,15.30